Regional Weather Roundup
Issued by NWS Green Bay, WI

Home | Current Version | Previous Version | Graphics & Text | Print | Product List | Glossary Off
Versions: 1 2 3 4 5 6 7 8 9 10 11 12 13 14 15 16 17 18 19 20 21 22 23 24 25 26 27 28 29 30 31 32 33 34 35 36 37 38 39 40 41 42 43 44 45 46 47 48 49 50

000
ASUS43 KGRB 040910
RWRGRB

NORTH-CENTRAL AND NORTHEAST WISCONSIN REGIONAL WEATHER ROUNDUP
NATIONAL WEATHER SERVICE GREEN BAY WI
400 AM CDT MON MAY 04 2015

WIZ005-009-010>012-018-019-041000-
NORTH CENTRAL WISCONSIN

CITY           SKY/WX    TMP DP  RH WIND       PRES   REMARKS
IRONWOOD       CLOUDY    50  36  57 N7        29.97R
MANITOWISH WTR PTCLDY    51  39  63 N8        29.97R
ARBOR VITAE    MOCLDY    52  47  82 N7        29.95R
EAGLE RIVER    CLOUDY    49  45  85 N7        29.94R
LAND O LAKES   CLOUDY    51  45  79 NW5       29.95R
RHINELANDER    CLOUDY    52  45  77 N6        29.94R
PHILLIPS       CLEAR     48  43  83 NW7       29.96R
ANTIGO         CLOUDY    52  50  93 NW3       29.93R
TOMAHAWK       FOG       44  42  96 W3        29.95R VSB 1/2
MERRILL        CLOUDY    50  50  99 CALM      29.93S
$$

WIZ013-073-041000-
NORTHEAST WISCONSIN

CITY           SKY/WX    TMP DP  RH WIND       PRES   REMARKS
IRON MOUNTAIN  CLOUDY    53  46  77 NW8       29.88R
MARINETTE      CLOUDY    57  54  88 W3        29.88R
OCONTO         CLOUDY    57  57 100 NW5       29.89R
$$

WIZ017-030-035>037-045-041000-
CENTRAL WISCONSIN

CITY           SKY/WX    TMP DP  RH WIND       PRES   REMARKS
MEDFORD        MOCLDY    50  48  92 N5        29.95R
WAUSAU         CLOUDY    54  52  93 N5        29.92R
MOSINEE        CLOUDY    50  50 100 CALM      29.92S
MARSHFIELD     CLOUDY    53  53 100 NW5       29.93R FOG
WISC RAPIDS    CLOUDY    56  54  93 N3        29.94R
STEVENS POINT  CLOUDY    53  53  98 CALM      29.93S
WAUPACA        CLOUDY    59  59 100 W5        29.91R
SHAWANO        CLOUDY    58  57  94 W3        29.91R
CLINTONVILLE   CLOUDY    55  55 100 NW6       29.90R
$$

WIZ038-039-048-051-041000-
FOX VALLEY

CITY           SKY/WX    TMP DP  RH WIND       PRES   REMARKS
NWS GREEN BAY  CLOUDY    58  57  97 S5        29.88R
APPLETON       CLOUDY    55  55 100 W3        29.90R
OSHKOSH        CLOUDY    57  55  93 N6        29.88R
FOND DU LAC    CLOUDY    59  56  89 NW5       29.86F
$$

WIZ022-050-052-041000-
EAST CENTRAL WISCONSIN

CITY           SKY/WX    TMP DP  RH WIND       PRES   REMARKS
STURGEON BAY   CLOUDY    57  54  88 CALM      29.89S
MANITOWOC      LGT RAIN  59  57  93 NE5       29.86F
SHEBOYGAN      LGT RAIN  56  54  93 NE12      29.83F FOG
$$

LMZ563-521-522-541>543-041000-
LAKESHORE

STATION/POSITION TIME  TEMP    WIND        PRES    VSBY  WAVE
                       AIR SEA DIR/SP/G                  HT/PER
                 (UTC) (F)     (DEG/KT/KT) (MB)    (MI)  (FT/S)
SHEBOYGAN LKSHOR 0900   54      50/ 10/ 10 1010.5F
KEWAUNEE LKSHORE 0900   57     170/  4/  6 1011.4R
NORTHPORT PIER   0800   55     150/  2/  5 1011.5S
SISTER BAY LKSHO 0800   58        CALM       N/A
CHAMBERS ISLAND  0900   56     170/  2/  4 1011.9R
MENOMINEE LKSHOR 0900   57     210/  5/  7 1012.4R
$$


USA.gov is the U.S. government's official web portal to all federal, state and local government web resources and services.